Location: Crescent
(42.8242°N, 73.7329°W)
Time: 08:45:20
(UTC+00:00)

Vanguard 1 Rocket - Pass Details

Date: 27 February 2026
Orbit: 653 x 4214 km, 34.3° (Epoch: 12 March)

Event Time Altitude Azimuth Distance (km) Brightness Sun altitude
Rises 22:28:19 0° 273° (W) 5,432 13.3 1.6°
Reaches altitude 10° 22:32:09 10° 261° (W) 4,900 13.6 0.9°
Maximum altitude 22:43:43 27° 211° (SSW) 4,817 11.7 -1.1°
Drops below altitude 10° 23:00:42 10° 165° (SSE) 7,191 11.9 -4.2°
Sets 23:08:23 0° 155° (SSE) 8,420 12.1 -5.6°
